Location: Branche des Alpilles
(43.6087°N, 4.6976°E)
Time: 19:47:05
(UTC+00:00)

N. Korean satellite - Pass Details

Date: 03 October 2021
Orbit: 450 x 494 km, 97.3° (Epoch: 28 October)

Event Time Altitude Azimuth Distance (km) Brightness Sun altitude
Rises 04:27:36 0° 21° (NNE) 2,559 10.6 -14.1°
Reaches altitude 10° 04:29:49 10° 32° (NNE) 1,681 9.8 -13.7°
Maximum altitude 04:33:07 32° 97° (E) 854 8.6 -13.1°
Drops below altitude 10° 04:36:24 10° 162° (SSE) 1,684 9.4 -12.5°
Sets 04:38:38 0° 173° (S) 2,565 10.3 -12.1°
